Список аэропортов
Фактическая погода:

22 января, 12:00
Температура: -8°C (-14.9*)
Ветер: западный 5 м/с
Давление: *755 мм
Без существ. явл.
Время (МСК)Темп. СВетерВлажностьДавлениеОблачностьОсадки
21:00-9СЗ, 5 м/с84%1011 гПаясно
22:00-10СЗ, 4 м/с86%1012 гПас прояснениями
23:00-11СЗ, 3 м/с87%1012 гПамалооблачно
23 января
00:00-12З, 3 м/с88%1012 гПаясно
01:00-13З, 3 м/с88%1012 гПаясно
02:00-13З, 3 м/с89%1013 гПамалооблачно
03:00-14З, 3 м/с89%1012 гПамалооблачно
04:00-14З, 3 м/с90%1012 гПас прояснениями
05:00-14З, 3 м/с90%1012 гПас прояснениями
06:00-14ЮЗ, 3 м/с90%1012 гПамалооблачно
07:00-15ЮЗ, 2 м/с89%1011 гПаоблачно
08:00-15ЮЗ, 2 м/с89%1010 гПаоблачно
09:00-14ЮЗ, 2 м/с89%1010 гПаоблачно
10:00-12ЮЗ, 3 м/с90%1009 гПаоблачно
11:00-10ЮЗ, 2 м/с91%1009 гПаоблачносл. снег
12:00-9Ю, 2 м/с91%1007 гПаоблачноснег
13:00-8Ю, 2 м/с90%1006 гПаоблачноснег
14:00-7ЮВ, 3 м/с91%1005 гПаоблачноснег
15:00-6Ю, 3 м/с91%1004 гПаоблачноснег
16:00-5Ю, 3 м/с93%1002 гПаоблачноснег
17:00-4ЮЗ, 2 м/с94%1001 гПаоблачноснег
18:00-3ЮЗ, 2 м/с94%1001 гПаоблачноснег
19:00-2ЮЗ, 3 м/с94%1000 гПаоблачноснег
20:000З, 4 м/с92%999 гПаоблачноснег
21:00+1З, 4 м/с91%999 гПаоблачнодождь
22:00+1З, 4 м/с92%999 гПаоблачнодождь
23:00+1З, 4 м/с92%998 гПаоблачнодождь
24 января
00:000З, 3 м/с95%998 гПаоблачноснег
01:000С, 2 м/с96%998 гПаоблачноснег
02:00-1СВ, 2 м/с96%998 гПаоблачноснег
03:00-2СВ, 3 м/с95%998 гПаоблачноснег
04:00-3СВ, 4 м/с93%998 гПаоблачноснег
05:00-4СВ, 4 м/с90%998 гПаоблачноснег
06:00-5СВ, 4 м/с89%999 гПаоблачносл. снег
07:00-5СВ, 4 м/с88%1000 гПаоблачносл. снег
08:00-6СВ, 4 м/с88%1000 гПаоблачносл. снег
09:00-6СВ, 5 м/с87%1002 гПаоблачносл. снег
10:00-6СВ, 5 м/с87%1003 гПаоблачносл. снег
11:00-6СВ, 5 м/с86%1004 гПаоблачносл. снег
12:00-6СВ, 5 м/с86%1005 гПаоблачносл. снег
13:00-7СВ, 5 м/с86%1006 гПаоблачно
14:00-7СВ, 5 м/с84%1007 гПаоблачно
15:00-7СВ, 5 м/с83%1009 гПаоблачно
16:00-7СВ, 4 м/с83%1010 гПаоблачно
17:00-8С, 4 м/с85%1011 гПаоблачно
18:00-9С, 4 м/с87%1012 гПаоблачно
19:00-9С, 3 м/с88%1013 гПаоблачно
20:00-10С, 3 м/с88%1014 гПаоблачно
21:00-10С, 3 м/с88%1015 гПаоблачно